Date String (YYYY-MM-DD hh:mm:ss) UTC,Instrument flags,Ambient pressure (hPa),Sample flow (lpm),Bypass flow (lpm),Sample temperature (°C),Ambient temperature (°C),ASC tube jacket temperature (°C),LED temperature (°C),Box temperature (°C),Sample RH (%),Span deviation,Mass concentration (μg/m³),Mass concentration (μg/m³),Mass concentration (μg/m³)
DateTimeUTC,F1_M11,P_M11,Q1_M11,Q2_M11,T1_M11,T2_M11,T3_M11,T4_M11,T5_M11,U1_M11,ZSPAN_M11,X0_M11,X2_M11,X1_M11
2022-05-02 03:00:00,,0821.3,5.00,0.00,29.3,28.5,00.0,38.3,31.1,16.3,0000.5,0027.01,0010.16,0006.78
2022-05-02 03:01:00,,0821.3,5.00,0.00,29.3,28.5,00.0,38.3,31.0,16.2,0000.3,0027.12,0010.18,0006.79
2022-05-02 03:02:00,,0821.4,4.98,0.00,29.3,28.5,00.0,38.3,31.0,15.8,0000.4,0027.10,0010.13,0006.79
2022-05-02 03:03:00,,0821.4,5.02,0.00,29.3,28.5,00.0,38.3,31.0,16.5,0001.0,0027.17,0010.09,0006.79
2022-05-02 03:04:00,,0821.4,5.00,0.00,29.3,28.5,00.0,38.3,31.1,17.0,0001.6,0028.72,0010.11,0006.75
2022-05-02 03:05:00,,0821.5,4.99,0.00,29.3,28.4,00.0,38.3,31.0,17.5,0001.1,0028.82,0009.93,0006.65
2022-05-02 03:06:00,,0821.6,5.01,0.00,29.3,28.4,00.0,38.3,31.0,17.7,0000.9,0028.30,0009.59,0006.52
2022-05-02 03:07:00,,0821.7,4.99,0.00,29.3,28.4,00.0,38.3,31.0,17.6,0000.7,0028.97,0009.43,0006.39
2022-05-02 03:08:00,,0821.7,5.01,0.00,29.3,28.4,00.0,38.3,31.1,17.7,0000.2,0030.99,0009.29,0006.21
2022-05-02 03:09:00,,0821.6,5.01,0.00,29.3,28.4,00.0,38.3,31.1,18.0,0000.7,0031.02,0009.06,0006.05
2022-05-02 03:10:00,,0821.7,4.99,0.00,29.3,28.4,00.0,38.3,31.0,18.2,0000.9,0029.29,0008.81,0005.88
2022-05-02 03:11:00,,0821.7,5.01,0.00,29.3,28.4,00.0,38.3,31.0,18.0,0001.1,0029.44,0008.58,0005.69
2022-05-02 03:12:00,,0821.7,5.00,0.00,29.3,28.4,00.0,38.3,31.0,18.0,0001.5,0028.13,0008.31,0005.50
2022-05-02 03:13:00,,0821.8,5.01,0.00,29.3,28.4,00.0,38.3,31.0,18.2,0001.1,0028.50,0008.11,0005.34
2022-05-02 03:14:00,,0821.8,4.99,0.00,29.3,28.4,00.0,38.3,31.0,18.3,0000.0,0028.65,0008.00,0005.19
2022-05-02 03:15:00,,0821.8,5.00,0.00,29.3,28.4,00.0,38.3,31.0,18.4,0000.6,0026.40,0007.80,0005.07
2022-05-02 03:16:00,,0821.8,5.00,0.00,29.3,28.4,00.0,38.3,31.1,18.5,0001.2,0025.59,0007.71,0005.02
2022-05-02 03:17:00,,0822.1,5.00,0.00,29.3,28.4,00.0,38.3,31.1,18.5,0002.1,0025.42,0007.69,0004.99
2022-05-02 03:18:00,,0821.9,4.99,0.00,29.3,28.5,00.0,38.3,31.1,18.9,0002.2,0025.02,0007.71,0004.96
2022-05-02 03:19:00,,0822.0,5.01,0.00,29.3,28.5,00.0,38.3,31.1,19.2,0002.7,0023.76,0007.62,0004.94
2022-05-02 03:20:00,,0822.0,4.99,0.00,29.4,28.5,00.0,38.3,31.1,19.3,0002.6,0023.45,0007.60,0004.93
2022-05-02 03:21:00,,0822.0,5.00,0.00,29.4,28.5,00.0,38.3,31.1,19.4,0000.9,0022.85,0007.57,0004.90
2022-05-02 03:22:00,,0822.1,5.00,0.00,29.4,28.5,00.0,38.3,31.1,19.6,0000.0,0022.39,0007.53,0004.90
2022-05-02 03:23:00,,0822.1,5.00,0.00,29.4,28.5,00.0,38.3,31.1,19.6,0000.0,0023.34,0007.63,0004.90
2022-05-02 03:24:00,,0822.1,4.99,0.00,29.4,28.5,00.0,38.3,31.1,19.6,0000.0,0023.39,0007.65,0004.90
2022-05-02 03:25:00,,0822.2,5.01,0.00,29.4,28.5,00.0,38.3,31.1,19.5,0000.0,0022.73,0007.56,0004.88
2022-05-02 03:26:00,,0822.1,5.00,0.00,29.4,28.5,00.0,38.3,31.1,19.6,0000.0,0022.70,0007.56,0004.87
2022-05-02 03:27:00,,0822.2,4.99,0.00,29.4,28.5,00.0,38.3,31.1,19.6,0000.0,0022.64,0007.60,0004.88
2022-05-02 03:28:00,,0822.2,5.01,0.00,29.4,28.5,00.0,38.3,31.1,19.6,0000.0,0022.74,0007.66,0004.86
2022-05-02 03:29:00,,0822.2,4.98,0.00,29.4,28.5,00.0,38.3,31.1,19.5,0000.0,0022.17,0007.61,0004.84
2022-05-02 03:30:00,,0822.2,5.00,0.00,29.4,28.5,00.0,38.3,31.1,19.6,0000.0,0020.85,0007.54,0004.83
2022-05-02 03:31:00,,0822.2,5.00,0.00,29.4,28.5,00.0,38.3,31.1,19.5,0000.0,0019.76,0007.50,0004.81
2022-05-02 03:32:00,,0822.3,5.02,0.00,29.3,28.5,00.0,38.3,31.1,19.7,0000.0,0019.39,0007.48,0004.80
2022-05-02 03:33:00,,0822.3,4.98,0.00,29.3,28.5,00.0,38.3,31.1,19.8,0000.0,0018.99,0007.51,0004.78
2022-05-02 03:34:00,,0822.4,5.01,0.00,29.3,28.5,00.0,38.3,31.1,19.8,0000.0,0017.69,0007.42,0004.75
2022-05-02 03:35:00,,0822.3,4.99,0.00,29.3,28.4,00.0,38.3,31.1,19.8,0000.0,0016.62,0007.30,0004.72
2022-05-02 03:36:00,,0822.3,5.00,0.00,29.3,28.4,00.0,38.3,31.1,19.8,0000.0,0016.20,0007.22,0004.69
2022-05-02 03:37:00,,0822.3,4.99,0.00,29.3,28.4,00.0,38.3,31.1,19.9,0000.0,0016.24,0007.19,0004.67
2022-05-02 03:38:00,,0822.3,5.00,0.00,29.3,28.4,00.0,38.3,31.0,19.9,0000.0,0016.09,0007.15,0004.63
2022-05-02 03:39:00,,0822.4,4.99,0.00,29.3,28.4,00.0,38.3,31.1,19.9,0000.0,0015.76,0007.06,0004.60
2022-05-02 03:40:00,,0822.4,5.01,0.00,29.3,28.4,00.0,38.3,31.1,20.0,0000.0,0016.14,0007.03,0004.59
2022-05-02 03:41:00,,0822.4,4.99,0.00,29.3,28.4,00.0,38.3,31.1,20.1,0000.0,0016.37,0007.04,0004.59
2022-05-02 03:42:00,,0822.4,5.01,0.00,29.3,28.4,00.0,38.3,31.0,20.0,0000.0,0016.13,0007.06,0004.58
2022-05-02 03:43:00,,0822.4,4.99,0.00,29.3,28.4,00.0,38.3,31.1,20.2,0000.0,0015.89,0006.98,0004.56
2022-05-02 03:44:00,,0822.5,5.01,0.00,29.3,28.4,00.0,38.3,31.1,20.3,0000.0,0015.90,0006.91,0004.54
2022-05-02 03:45:00,,0822.5,5.00,0.00,29.3,28.4,00.0,38.3,31.1,20.3,0000.0,0015.94,0006.92,0004.52
2022-05-02 03:46:00,,0822.4,5.00,0.00,29.3,28.4,00.0,38.3,31.1,20.4,0000.0,0016.24,0006.97,0004.52
2022-05-02 03:47:00,,0822.5,5.00,0.00,29.3,28.4,00.0,38.3,31.1,20.4,0000.0,0016.04,0006.93,0004.51
2022-05-02 03:48:00,,0822.6,5.00,0.00,29.3,28.4,00.0,38.3,31.0,20.4,0000.0,0015.88,0006.90,0004.51
2022-05-02 03:49:00,,0822.5,5.00,0.00,29.3,28.4,00.0,38.3,31.0,20.5,0000.0,0016.20,0006.89,0004.51
2022-05-02 03:50:00,,0822.5,4.98,0.00,29.3,28.4,00.0,38.3,31.0,20.7,0000.0,0016.52,0006.93,0004.51
2022-05-02 03:51:00,,0822.6,5.01,0.00,29.3,28.4,00.0,38.2,31.0,20.7,0000.0,0016.23,0006.96,0004.50
2022-05-02 03:52:00,,0822.6,4.98,0.00,29.2,28.4,00.0,38.2,31.0,20.7,0000.0,0015.63,0006.92,0004.49
2022-05-02 03:53:00,,0822.6,5.01,0.00,29.2,28.4,00.0,38.2,31.0,20.7,0000.0,0015.48,0006.84,0004.49
2022-05-02 03:54:00,,0822.6,4.98,0.00,29.2,28.4,00.0,38.2,31.0,20.8,0000.0,0015.93,0006.88,0004.49
2022-05-02 03:55:00,,0822.6,5.02,0.00,29.2,28.3,00.0,38.2,31.0,20.8,0000.0,0016.23,0006.85,0004.51
2022-05-02 03:56:00,,0822.7,4.98,0.00,29.2,28.3,00.0,38.2,31.0,20.9,0000.0,0016.00,0006.83,0004.53
2022-05-02 03:57:00,,0822.6,5.02,0.00,29.2,28.3,00.0,38.2,31.0,20.9,0000.0,0015.58,0006.86,0004.55
2022-05-02 03:58:00,,0822.7,4.99,0.00,29.2,28.3,00.0,38.2,30.9,20.8,0000.0,0016.11,0007.01,0004.55
2022-05-02 03:59:00,,0822.7,5.01,0.00,29.2,28.3,00.0,38.2,30.9,20.9,0000.0,0016.91,0007.14,0004.56
